Other Public Products
Issued by NWS Grand Forks, ND

Home | Current Version | Previous Version | Graphics & Text | Print | Product List | Glossary On
Versions: 1 2 3 4 5 6 7 8 9 10 11 12 13 14 15 16 17 18 19 20 21 22 23 24 25 26 27 28 29 30 31 32 33 34 35 36 37 38 39 40 41 42 43 44 45 46 47 48 49 50
512
FPUS83 KFGF 251110
OPUFGF
PRAIRIE TO PINES WEATHER ROUNDUP
NATIONAL WEATHER SERVICE EASTERN NORTH DAKOTA/GRAND FORKS ND
600 AM CDT WED MAY 25 2016

 **SATELLITE DATA USED TO AUGMENT SKY COVER AT AUTOMATED STATIONS**
 *****  WEATHER ACROSS EASTERN NORTH DAKOTA  *****

CITY           SKY/WX    TMP DP  RH WIND       PRES   REMARKS
GRAND FORKS    CLOUDY    59  52  77 E8        29.84F
GRAND FORKS AF CLOUDY    55  53  93 N6        29.85F
GRAND CITY NWS   N/A     59 N/A N/A E9          N/A
BUXTON           N/A     59  58  95 NE6         N/A
DEVILS LAKE    CLOUDY    64  49  57 E8        29.83F
FARGO          CLOUDY    66  49  54 E13       29.80F
WAHPETON ARPT  CLOUDY    63  50  63 E8        29.80F
$$

 *****  WEATHER ACROSS CENTRAL AND WESTERN NORTH DAKOTA  *****

CITY           SKY/WX    TMP DP  RH WIND       PRES   REMARKS
JAMESTOWN      NOT AVBL
BISMARCK       CLOUDY    58  56  93 CALM      29.81F
MINOT          CLOUDY    59  55  87 S5        29.85R
MINOT AFB      DRIZZLE   57  53  87 NE5       29.83F
GARRISON         N/A     56  54  93 E6        29.85F
WILLISTON      RAIN      51  47  86 N13       29.85F
DICKINSON      CLOUDY    49  47  93 E5        29.81R
HETTINGER      CLOUDY    55  48  77 SE3       29.83F
$$

 *****  OTHER OBSERVATIONS NORTHEAST NORTH DAKOTA  *****

CITY           SKY/WX    TMP DP  RH WIND       PRES   REMARKS
WALHALLA       FAIR      50  50 100 N8        29.88F
LANGDON        FAIR      57  50  77 E8        29.88F
CAVALIER       FAIR      52  52 100 CALM      29.87F
GRAFTON        FAIR      55  55 100 E3        29.88F
CANDO          NOT AVBL
FORT TOTTEN      N/A     64  46  52 E7        29.95S
ROLLA          FAIR      54  48  82 N3        29.88F
RUGBY          FAIR      55  50  82 NE5       29.85F
 ***** THE ABOVE OBSERVATIONS ARE NON NWS ARE NOT QUALITY
        CONTROLLED AND MAY MIS-REPORT RAIN FOR SNOW...
$$

 *****  OTHER OBSERVATIONS SOUTHEAST NORTH DAKOTA *****

CITY           SKY/WX    TMP DP  RH WIND       PRES   REMARKS
COOPERSTOWN    NOT AVBL
VALLEY CITY    PTSUNNY   59  57  94 SE5       29.84R
OAKES            N/A    N/A N/A N/A MISG        N/A
GWINNER        FAIR      63  55  77 E3        29.80S
SHEYENNE NWR     N/A     60  52  73 E7        29.95
BUFFALO          N/A     59  53  82 E10         N/A
WYNDMERE         N/A     63  52  67 SE7         N/A
 ***** THE ABOVE OBSERVATIONS ARE NON NWS ARE NOT QUALITY
       CONTROLLED AND MAY MIS-REPORT RAIN FOR SNOW...
$$

  *****  WEATHER ACROSS NORTHERN MINNESOTA  *****

CITY           SKY/WX    TMP DP  RH WIND       PRES   REMARKS
FLAG ISLAND    MOCLDY    57  54  88 CALM      29.95S
WARROAD        PTCLDY    55  52  88 CALM      29.94S
ROSEAU         MOCLDY    52  46  82 NE5       29.93S
HALLOCK        CLOUDY    57  52  82 E9        29.87F
THF RVR FALLS  CLOUDY    61  50  67 E10       29.90F
HALSTAD        NOT AVBL
FOSSTON        CLOUDY    57  52  82 E9        29.88F
BAUDETTE       CLOUDY    51  50  96 SE6       29.94F
WASKISH        MOCLDY    52  52 100 E6        29.95S
CROOKSTON      CLOUDY    61  52  72 E9          N/A
$$
  *****  WEATHER ACROSS CENTRAL AND WEST MINNESOTA  *****

CITY           SKY/WX    TMP DP  RH WIND       PRES   REMARKS
BEMIDJI        CLOUDY    55  54  94 E8        29.93S
PARK RAPIDS    CLOUDY    58  54  86 E10       29.90F
WADENA         CLOUDY    55  54  94 E9        29.88S
DETROIT LAKES  CLOUDY    61  52  72 E8        29.87F
MOORHEAD       CLOUDY    64  50  59 E10       29.81S
FERGUS FALLS   CLOUDY    64  54  68 E7        29.79S
ELBOW LAKE     FAIR      63  56  79 SE13      29.83R
MORRIS MN      CLOUDY    64  57  77 E12       29.79F
STAPLES        CLOUDY    55  54  94 E8        29.89S
WHEATON        CLOUDY    64  57  77 E10       29.81S
$$
  *****  WEATHER ELSEWHERE ACROSS MINNESOTA  *****

CITY           SKY/WX    TMP DP  RH WIND       PRES   REMARKS
DULUTH         FOG       50  49  96 E12       30.00F VSB 1/4
INTRNTL FALLS  FOG       51  51 100 SE3       29.98S VSB<1/4
ELY            CLOUDY    52  48  87 SE7       30.02S
CLOQUET        FOG       48  46  93 E9G17     29.98F VSB 1/2
BRAINERD       CLOUDY    56  55  97 E9        29.92F
HIBBING        CLOUDY    52  51  97 E6        29.99F
ALEXANDRIA     CLOUDY    60  53  77 E10       29.86F
SAINT CLOUD    CLOUDY    57  55  93 E10       29.88S
MINNEAPOLIS    CLOUDY    68  57  68 E13       29.88R
$$

  *****  WEATHER ACROSS SOUTH DAKOTA  *****

CITY           SKY/WX    TMP DP  RH WIND       PRES   REMARKS
SIOUX FALLS    CLOUDY    60  58  92 E8        29.79F
BROOKINGS      RAIN      60  58  92 S12       29.80R
WATERTOWN      CLOUDY    64  60  87 E6        29.78S
HURON          LGT RAIN  60  59  96 N15       29.73S
SISSETON         N/A     59  51  75 CALM      29.78S
ABERDEEN       CLOUDY    61  56  83 N9        29.76F
MITCHELL       CLOUDY    61  59  93 S13       29.75R
PIERRE         CLOUDY    55  54  96 SW7       29.75R
MOBRIDGE       CLOUDY    58  52  80 NE17      29.75F
RAPID CITY     CLEAR     44  42  93 W5        29.85R
$$

  *****  SOME WEATHER IN NEARBY STATES *****

CITY           SKY/WX    TMP DP  RH WIND       PRES   REMARKS
GLASGOW MT     CLOUDY    44  41  89 CALM      29.87R
GREAT FALLS MT CLEAR     38  35  89 S8        29.89F
CHEYENNE WY    CLEAR     46  34  62 NW10      29.97R
SCOTTSBLUFF NE CLOUDY    51  47  86 VRB5      29.91R
OMAHA NE       LGT RAIN  65  60  84 NW5       29.82R
DES MOINES IA  TSTM      66  63  90 E12       29.88F
DAVENPORT IA   CLEAR     64  60  87 S8        29.96R
CHICAGO IL     MOCLDY    64  60  87 S7        29.97S
EAU CLAIRE WI  PTCLDY    58  56  93 NE6       29.93R
LA CROSSE WI   CLOUDY    60  57  89 E7        29.92R
$$

  *****  SOME NATIONAL WEATHER *****

CITY           SKY/WX    TMP DP  RH WIND       PRES   REMARKS
LA GUARDIA NY  MOSUNNY   68  54  60 CALM      30.04R
RALEIGH NC     PTCLDY    61  57  87 CALM      30.21R
ATLANTA GA     PTCLDY    65  54  67 S3        30.19R
NEW ORLEANS LA PTCLDY    76  72  87 SE7       30.09S
OKLAHOMA CITY  PTCLDY    75  72  90 S17G25    29.87S
ALBUQUERQUE NM CLEAR     54  12  18 CALM      30.09R
SALT LAKE CITY MOCLDY    53  41  63 S7        29.97R
LOS ANGELES CA PTCLDY    57  51  80 NW6       30.04S
BOISE ID       MOCLDY    53  41  63 NW6       29.94R
SEATTLE WA     CLOUDY    54  50  86 CALM      30.07R
$$

*** WEATHER ACROSS MANITOBA...SASKATCHEWAN AND ONTARIO ***
                ***ONTARIO***

CITY           SKY/WX    TMP DP  RH WIND       PRES   REMARKS
GERALDTON      MOCLDY    43  41  93 SE7       30.15R
THUNDER BAY    CLOUDY    48  45  87 E10       30.11S
SIOUX LOOKOUT  CLOUDY    50  50 100 SE7       30.04R FOG
TORONTO        CLOUDY    66  48  52 W9        30.01R
BIG TROUT LK   PTCLDY    45  39  81 SE7       30.08R
PICKLE LAKE    MOCLDY    48  45  87 SE7       30.07
DRYDEN         FOG       52  50  93 E3        30.02R VSB 3/4
KENORA         PTCLDY    52  50  93 SE6       29.99R
$$
                *** MANITOBA***

CITY           SKY/WX    TMP DP  RH WIND       PRES   REMARKS
BRANDON        MOCLDY    50  48  93 E7        29.92R
DAUPHIN        CLOUDY    50  48  93 W5        29.93S FOG
ISLAND LAKE    MOCLDY    43  41  93 E5        30.00S
PILOT MOUND      N/A     55  48  76 E8          N/A
THE PAS        CLOUDY    46  45  93 CALM      29.96F
THOMPSON       MOCLDY    39  36  87 VRB2      30.03R
WINNIPEG       MOCLDY    54  50  87 CALM      29.93R
LYNN LAKE      PTCLDY    45  39  81 S5        29.96S
CHURCHILL      CLOUDY    32  27  80 SE13      30.11S WCI  22
GILLAM         CLOUDY    39  34  81 SE5       30.07S
$$
                ***SASKATCHEWAN***

CITY           SKY/WX    TMP DP  RH WIND       PRES   REMARKS
ESTEVAN        MOCLDY    50  43  76 NW9       29.87F
KINDERSLEY     CLOUDY    46  45  93 N3        29.88S
LLOYDMINSTER   CLEAR     39  39 100 S6        29.90F FOG
PRINCE ALBERT  FOG       43  43 100 E9        29.92S VSB 3/8
REGINA         PTCLDY    39  37  93 SE7       29.89S
YORKTON        FOG       43  41  93 VRB2      29.91S VSC1F1C2F2C3F3C4F4C5F5C6F6C7F7C8F8C9F9CaFaCbFbCcFcCdFdCe!



USA.gov is the U.S. government's official web portal to all federal, state and local government web resources and services.